Time,TemperatureF,DewpointF,PressureIn,WindDirection,WindDirectionDegrees,WindSpeedMPH,WindSpeedGustMPH,Humidity,HourlyPrecipIn,Conditions,Clouds,dailyrainin,SoftwareType,DateUTC
2013-03-21 00:02:00,7.0,-4.0,-100.00,NE,40,1.0,4.0,62,0.00,,,0.00,,2013-03-21 05:02:00,
2013-03-21 00:12:00,7.0,-4.0,-100.00,North,0,1.0,3.0,62,0.00,,,0.00,,2013-03-21 05:12:00,
2013-03-21 00:22:00,7.0,-4.0,-100.00,NNE,20,1.0,4.0,62,0.00,,,0.00,,2013-03-21 05:22:00,
2013-03-21 00:32:00,6.0,-4.0,-100.00,North,5,1.0,4.0,62,0.00,,,0.00,,2013-03-21 05:32:00,
2013-03-21 00:43:00,6.0,-4.0,-100.00,NNW,340,2.0,5.0,63,0.00,,,0.00,,2013-03-21 05:43:00,
2013-03-21 00:52:00,6.0,-4.0,-100.00,NW,320,2.0,4.0,63,0.00,,,0.00,,2013-03-21 05:52:00,
2013-03-21 01:02:00,5.0,-4.0,-100.00,North,10,1.0,4.0,63,0.00,,,0.00,,2013-03-21 06:02:00,
2013-03-21 01:12:00,5.0,-4.0,-100.00,North,5,1.0,5.0,63,0.00,,,0.00,,2013-03-21 06:12:00,
2013-03-21 01:22:00,3.0,-6.0,-100.00,North,10,1.0,4.0,65,0.00,,,0.00,,2013-03-21 06:22:00,
2013-03-21 01:32:00,3.0,-6.0,-100.00,NNE,15,0.0,2.0,65,0.00,,,0.00,,2013-03-21 06:32:00,
2013-03-21 01:52:00,0.0,-8.0,-100.00,North,350,1.0,4.0,67,0.00,,,0.00,,2013-03-21 06:52:00,
2013-03-21 02:02:00,1.0,-8.0,-100.00,North,0,1.0,3.0,69,0.00,,,0.00,,2013-03-21 07:02:00,
2013-03-21 02:12:00,0.0,-8.0,-100.00,NNW,345,1.0,2.0,68,0.00,,,0.00,,2013-03-21 07:12:00,
2013-03-21 02:22:00,1.0,-8.0,-100.00,North,5,1.0,1.0,69,0.00,,,0.00,,2013-03-21 07:22:00,
2013-03-21 02:32:00,-2.0,-9.0,-100.00,WNW,290,1.0,2.0,68,0.00,,,0.00,,2013-03-21 07:32:00,
2013-03-21 02:42:00,0.0,-8.0,-100.00,NNE,30,0.0,2.0,70,0.00,,,0.00,,2013-03-21 07:42:00,
2013-03-21 02:52:00,0.0,-8.0,-100.00,NNW,345,0.0,2.0,69,0.00,,,0.00,,2013-03-21 07:52:00,
2013-03-21 03:02:00,0.0,-8.0,-100.00,NNE,20,0.0,2.0,70,0.00,,,0.00,,2013-03-21 08:02:00,
2013-03-21 03:13:00,-1.0,-8.0,-100.00,NNE,15,1.0,2.0,71,0.00,,,0.00,,2013-03-21 08:13:00,
2013-03-21 03:22:00,-3.0,-11.0,-100.00,North,355,1.0,2.0,70,0.00,,,0.00,,2013-03-21 08:22:00,
2013-03-21 03:33:00,-4.0,-11.0,-100.00,North,355,1.0,3.0,70,0.00,,,0.00,,2013-03-21 08:33:00,
2013-03-21 03:42:00,-5.0,-11.0,-100.00,NNE,20,0.0,1.0,71,0.00,,,0.00,,2013-03-21 08:42:00,
2013-03-21 03:52:00,-6.0,-13.0,-100.00,WNW,300,0.0,1.0,70,0.00,,,0.00,,2013-03-21 08:52:00,
2013-03-21 04:02:00,-3.0,-9.0,-100.00,NNE,25,1.0,1.0,72,0.00,,,0.00,,2013-03-21 09:02:00,
2013-03-21 04:11:00,-3.0,-9.0,-100.00,NNE,30,1.0,2.0,71,0.00,,,0.00,,2013-03-21 09:11:00,
2013-03-21 04:21:00,-4.0,-11.0,-100.00,NNW,345,0.0,1.0,71,0.00,,,0.00,,2013-03-21 09:21:00,
2013-03-21 04:33:00,-4.0,-11.0,-100.00,North,10,0.0,1.0,72,0.00,,,0.00,,2013-03-21 09:33:00,
2013-03-21 04:43:00,-5.0,-11.0,-100.00,NE,35,0.0,1.0,71,0.00,,,0.00,,2013-03-21 09:43:00,
2013-03-21 04:53:00,-5.0,-11.0,-100.00,NNE,30,1.0,1.0,72,0.00,,,0.00,,2013-03-21 09:53:00,
2013-03-21 05:03:00,-6.0,-13.0,-100.00,NE,35,1.0,2.0,71,0.00,,,0.00,,2013-03-21 10:03:00,
2013-03-21 05:12:00,-6.0,-13.0,-100.00,NE,35,1.0,2.0,71,0.00,,,0.00,,2013-03-21 10:12:00,
2013-03-21 05:22:00,-7.0,-13.0,-100.00,NE,35,1.0,2.0,71,0.00,,,0.00,,2013-03-21 10:22:00,
2013-03-21 05:33:00,-5.0,-13.0,-100.00,NE,35,2.0,3.0,72,0.00,,,0.00,,2013-03-21 10:33:00,
2013-03-21 05:42:00,-6.0,-13.0,-100.00,North,10,1.0,4.0,71,0.00,,,0.00,,2013-03-21 10:42:00,
2013-03-21 05:52:00,-9.0,-15.0,-100.00,NNE,20,1.0,1.0,71,0.00,,,0.00,,2013-03-21 10:52:00,
2013-03-21 06:03:00,-9.0,-15.0,-100.00,NNE,25,0.0,3.0,71,0.00,,,0.00,,2013-03-21 11:03:00,
2013-03-21 06:12:00,-9.0,-17.0,-100.00,NNE,20,1.0,1.0,72,0.00,,,0.00,,2013-03-21 11:12:00,
2013-03-21 06:22:00,-9.0,-17.0,-100.00,NNW,345,0.0,3.0,71,0.00,,,0.00,,2013-03-21 11:22:00,
2013-03-21 06:33:00,-11.0,-18.0,-100.00,NE,45,1.0,3.0,71,0.00,,,0.00,,2013-03-21 11:33:00,
2013-03-21 06:42:00,-7.0,-13.0,-100.00,ESE,120,0.0,2.0,72,0.00,,,0.00,,2013-03-21 11:42:00,
2013-03-21 06:52:00,-10.0,-17.0,-100.00,NE,35,1.0,2.0,71,0.00,,,0.00,,2013-03-21 11:52:00,
2013-03-21 07:02:00,-9.0,-15.0,-100.00,NE,35,3.0,4.0,71,0.00,,,0.00,,2013-03-21 12:02:00,
2013-03-21 07:12:00,-10.0,-17.0,-100.00,NNE,30,2.0,4.0,71,0.00,,,0.00,,2013-03-21 12:12:00,
2013-03-21 07:22:00,-10.0,-17.0,-100.00,North,10,1.0,1.0,71,0.00,,,0.00,,2013-03-21 12:22:00,
2013-03-21 07:32:00,-11.0,-18.0,-100.00,North,5,0.0,1.0,70,0.00,,,0.00,,2013-03-21 12:32:00,
2013-03-21 07:42:00,-11.0,-17.0,-100.00,North,5,0.0,2.0,71,0.00,,,0.00,,2013-03-21 12:42:00,
2013-03-21 07:52:00,-13.0,-20.0,-100.00,NE,35,1.0,1.0,69,0.00,,,0.00,,2013-03-21 12:52:00,
2013-03-21 08:02:00,-8.0,-15.0,-100.00,NNE,25,4.0,6.0,70,0.00,,,0.00,,2013-03-21 13:02:00,
2013-03-21 08:12:00,-10.0,-18.0,-100.00,NNE,15,1.0,1.0,69,0.00,,,0.00,,2013-03-21 13:12:00,
2013-03-21 08:22:00,-9.0,-15.0,-100.00,NNE,25,1.0,4.0,70,0.00,,,0.00,,2013-03-21 13:22:00,
2013-03-21 08:32:00,-6.0,-13.0,-100.00,NNE,25,2.0,6.0,70,0.00,,,0.00,,2013-03-21 13:32:00,
2013-03-21 08:42:00,-5.0,-13.0,-100.00,NNE,30,3.0,4.0,70,0.00,,,0.00,,2013-03-21 13:42:00,
2013-03-21 08:52:00,-5.0,-13.0,-100.00,SW,215,0.0,4.0,66,0.00,,,0.00,,2013-03-21 13:52:00,
2013-03-21 09:02:00,-3.0,-11.0,-100.00,NNE,30,1.0,3.0,65,0.00,,,0.00,,2013-03-21 14:02:00,
2013-03-21 09:12:00,-1.0,-9.0,-100.00,NNW,345,1.0,3.0,65,0.00,,,0.00,,2013-03-21 14:12:00,
2013-03-21 09:21:00,2.0,-8.0,-100.00,North,10,1.0,4.0,64,0.00,,,0.00,,2013-03-21 14:21:00,
2013-03-21 09:32:00,4.0,-8.0,-100.00,NE,50,0.0,2.0,59,0.00,,,0.00,,2013-03-21 14:32:00,
2013-03-21 09:42:00,6.0,-6.0,-100.00,NE,40,2.0,4.0,58,0.00,,,0.00,,2013-03-21 14:42:00,
2013-03-21 09:52:00,6.0,-4.0,-100.00,NE,35,2.0,4.0,59,0.00,,,0.00,,2013-03-21 14:52:00,
2013-03-21 10:03:00,9.0,-4.0,-100.00,NE,35,0.0,1.0,55,0.00,,,0.00,,2013-03-21 15:03:00,
2013-03-21 10:12:00,9.0,-4.0,-100.00,WSW,245,1.0,2.0,56,0.00,,,0.00,,2013-03-21 15:12:00,
2013-03-21 10:22:00,11.0,-2.0,-100.00,West,280,2.0,4.0,53,0.00,,,0.00,,2013-03-21 15:22:00,
2013-03-21 10:33:00,12.0,-2.0,-100.00,West,270,2.0,4.0,50,0.00,,,0.00,,2013-03-21 15:33:00,
2013-03-21 10:42:00,13.0,0.0,-100.00,NW,305,2.0,4.0,53,0.00,,,0.00,,2013-03-21 15:42:00,
2013-03-21 10:52:00,15.0,-2.0,-100.00,NW,315,2.0,4.0,46,0.00,,,0.00,,2013-03-21 15:52:00,
2013-03-21 11:03:00,17.0,0.0,-100.00,NW,310,2.0,4.0,46,0.00,,,0.00,,2013-03-21 16:03:00,
2013-03-21 11:12:00,18.0,0.0,-100.00,WSW,255,2.0,4.0,45,0.00,,,0.00,,2013-03-21 16:12:00,
2013-03-21 11:23:00,18.0,0.0,-100.00,NW,305,3.0,5.0,44,0.00,,,0.00,,2013-03-21 16:23:00,
2013-03-21 11:33:00,17.0,1.0,-100.00,North,5,1.0,6.0,48,0.00,,,0.00,,2013-03-21 16:33:00,
2013-03-21 11:42:00,19.0,1.0,-100.00,SSE,150,1.0,4.0,45,0.00,,,0.00,,2013-03-21 16:42:00,
2013-03-21 11:52:00,20.0,1.0,-100.00,North,0,2.0,6.0,45,0.00,,,0.00,,2013-03-21 16:52:00,
2013-03-21 12:02:00,20.0,1.0,-100.00,West,280,2.0,8.0,45,0.00,,,0.00,,2013-03-21 17:02:00,
2013-03-21 12:12:00,20.0,3.0,-100.00,WNW,285,4.0,7.0,46,0.00,,,0.00,,2013-03-21 17:12:00,
2013-03-21 12:23:00,21.0,3.0,-100.00,WNW,300,5.0,8.0,44,0.00,,,0.00,,2013-03-21 17:23:00,
2013-03-21 12:32:00,21.0,3.0,-100.00,WNW,285,4.0,6.0,45,0.00,,,0.00,,2013-03-21 17:32:00,
2013-03-21 12:42:00,21.0,3.0,-100.00,WNW,300,3.0,7.0,45,0.00,,,0.00,,2013-03-21 17:42:00,
2013-03-21 12:52:00,21.0,3.0,-100.00,West,270,4.0,9.0,44,0.00,,,0.00,,2013-03-21 17:52:00,
2013-03-21 13:02:00,21.0,3.0,-100.00,NW,325,2.0,7.0,44,0.00,,,0.00,,2013-03-21 18:02:00,
2013-03-21 13:12:00,22.0,3.0,-100.00,NNW,340,3.0,7.0,44,0.00,,,0.00,,2013-03-21 18:12:00,
2013-03-21 13:22:00,22.0,5.0,-100.00,North,5,1.0,7.0,47,0.00,,,0.00,,2013-03-21 18:22:00,
2013-03-21 13:32:00,21.0,3.0,-100.00,NNE,25,5.0,8.0,46,0.00,,,0.00,,2013-03-21 18:32:00,
2013-03-21 13:42:00,21.0,3.0,-100.00,NE,35,4.0,7.0,44,0.00,,,0.00,,2013-03-21 18:42:00,
2013-03-21 13:52:00,23.0,3.0,-100.00,NNW,330,4.0,7.0,42,0.00,,,0.00,,2013-03-21 18:52:00,
2013-03-21 14:02:00,23.0,3.0,-100.00,North,5,4.0,8.0,42,0.00,,,0.00,,2013-03-21 19:02:00,
2013-03-21 14:12:00,22.0,5.0,-100.00,North,350,4.0,11.0,45,0.00,,,0.00,,2013-03-21 19:12:00,
2013-03-21 14:22:00,24.0,7.0,-100.00,West,260,2.0,7.0,45,0.00,,,0.00,,2013-03-21 19:22:00,
2013-03-21 14:32:00,22.0,5.0,-100.00,NNE,30,6.0,9.0,46,0.00,,,0.00,,2013-03-21 19:32:00,
2013-03-21 14:42:00,24.0,3.0,-100.00,North,0,2.0,7.0,42,0.00,,,0.00,,2013-03-21 19:42:00,
2013-03-21 14:52:00,24.0,3.0,-100.00,NW,325,3.0,7.0,40,0.00,,,0.00,,2013-03-21 19:52:00,
2013-03-21 15:02:00,23.0,5.0,-100.00,North,10,3.0,7.0,45,0.00,,,0.00,,2013-03-21 20:02:00,
2013-03-21 15:12:00,23.0,5.0,-100.00,North,0,3.0,7.0,43,0.00,,,0.00,,2013-03-21 20:12:00,
2013-03-21 15:22:00,23.0,5.0,-100.00,NNE,25,6.0,7.0,45,0.00,,,0.00,,2013-03-21 20:22:00,
2013-03-21 15:33:00,22.0,5.0,-100.00,NNE,30,6.0,9.0,45,0.00,,,0.00,,2013-03-21 20:33:00,
2013-03-21 15:42:00,22.0,5.0,-100.00,NE,35,7.0,10.0,45,0.00,,,0.00,,2013-03-21 20:42:00,
2013-03-21 15:52:00,23.0,3.0,-100.00,NNE,30,6.0,9.0,43,0.00,,,0.00,,2013-03-21 20:52:00,
2013-03-21 16:02:00,24.0,5.0,-100.00,NNE,30,4.0,8.0,44,0.00,,,0.00,,2013-03-21 21:02:00,
2013-03-21 16:12:00,26.0,5.0,-100.00,North,5,1.0,6.0,40,0.00,,,0.00,,2013-03-21 21:12:00,
2013-03-21 16:22:00,25.0,5.0,-100.00,North,355,3.0,7.0,41,0.00,,,0.00,,2013-03-21 21:22:00,
2013-03-21 16:32:00,26.0,5.0,-100.00,ENE,65,2.0,7.0,39,0.00,,,0.00,,2013-03-21 21:32:00,
2013-03-21 16:43:00,27.0,5.0,-100.00,West,275,2.0,5.0,39,0.00,,,0.00,,2013-03-21 21:43:00,
2013-03-21 16:52:00,28.0,5.0,-100.00,WNW,290,3.0,7.0,38,0.00,,,0.00,,2013-03-21 21:52:00,
2013-03-21 17:02:00,26.0,5.0,-100.00,WNW,300,4.0,7.0,41,0.00,,,0.00,,2013-03-21 22:02:00,
2013-03-21 17:13:00,26.0,5.0,-100.00,WNW,295,3.0,7.0,40,0.00,,,0.00,,2013-03-21 22:13:00,
2013-03-21 17:23:00,27.0,5.0,-100.00,WNW,300,3.0,6.0,39,0.00,,,0.00,,2013-03-21 22:23:00,
2013-03-21 17:33:00,26.0,5.0,-100.00,NNW,340,4.0,7.0,39,0.00,,,0.00,,2013-03-21 22:33:00,
2013-03-21 17:42:00,27.0,7.0,-100.00,West,260,2.0,6.0,40,0.00,,,0.00,,2013-03-21 22:42:00,
2013-03-21 17:52:00,26.0,5.0,-100.00,NW,310,2.0,6.0,41,0.00,,,0.00,,2013-03-21 22:52:00,
2013-03-21 18:02:00,27.0,7.0,-100.00,WNW,300,1.0,6.0,41,0.00,,,0.00,,2013-03-21 23:02:00,
2013-03-21 18:12:00,25.0,7.0,-100.00,West,260,2.0,5.0,43,0.00,,,0.00,,2013-03-21 23:12:00,
2013-03-21 18:22:00,26.0,7.0,-100.00,WNW,285,2.0,4.0,41,0.00,,,0.00,,2013-03-21 23:22:00,
2013-03-21 18:32:00,27.0,7.0,-100.00,West,280,1.0,4.0,41,0.00,,,0.00,,2013-03-21 23:32:00,
2013-03-21 18:42:00,25.0,7.0,-100.00,West,275,2.0,3.0,43,0.00,,,0.00,,2013-03-21 23:42:00,
2013-03-21 18:52:00,25.0,7.0,-100.00,West,260,1.0,3.0,43,0.00,,,0.00,,2013-03-21 23:52:00,
2013-03-21 19:02:00,24.0,5.0,-100.00,West,260,2.0,3.0,46,0.00,,,0.00,,2013-03-22 00:02:00,
2013-03-21 19:12:00,24.0,5.0,-100.00,West,275,1.0,3.0,45,0.00,,,0.00,,2013-03-22 00:12:00,
2013-03-21 19:22:00,22.0,5.0,-100.00,WNW,300,1.0,2.0,47,0.00,,,0.00,,2013-03-22 00:22:00,
2013-03-21 19:32:00,20.0,5.0,-100.00,NW,325,1.0,1.0,51,0.00,,,0.00,,2013-03-22 00:32:00,
2013-03-21 19:42:00,20.0,5.0,-100.00,NNW,345,0.0,2.0,52,0.00,,,0.00,,2013-03-22 00:42:00,
2013-03-21 19:52:00,17.0,3.0,-100.00,NW,310,0.0,1.0,55,0.00,,,0.00,,2013-03-22 00:52:00,
2013-03-21 20:02:00,17.0,3.0,-100.00,North,0,0.0,0.0,55,0.00,,,0.00,,2013-03-22 01:02:00,
2013-03-21 20:12:00,16.0,5.0,-100.00,North,5,0.0,1.0,60,0.00,,,0.00,,2013-03-22 01:12:00,
2013-03-21 20:22:00,13.0,3.0,-100.00,WSW,250,0.0,0.0,61,0.00,,,0.00,,2013-03-22 01:22:00,
2013-03-21 20:32:00,13.0,3.0,-100.00,NW,305,0.0,1.0,62,0.00,,,0.00,,2013-03-22 01:32:00,
2013-03-21 20:42:00,12.0,1.0,-100.00,NW,315,0.0,0.0,61,0.00,,,0.00,,2013-03-22 01:42:00,
2013-03-21 20:52:00,12.0,3.0,-100.00,NW,315,0.0,0.0,63,0.00,,,0.00,,2013-03-22 01:52:00,
2013-03-21 21:02:00,11.0,1.0,-100.00,NW,315,0.0,0.0,64,0.00,,,0.00,,2013-03-22 02:02:00,
2013-03-21 21:12:00,12.0,1.0,-100.00,NW,315,0.0,0.0,64,0.00,,,0.00,,2013-03-22 02:12:00,
2013-03-21 21:22:00,11.0,1.0,-100.00,North,5,1.0,2.0,63,0.00,,,0.00,,2013-03-22 02:22:00,
2013-03-21 21:32:00,9.0,0.0,-100.00,NE,40,1.0,2.0,63,0.00,,,0.00,,2013-03-22 02:32:00,
2013-03-21 21:42:00,9.0,0.0,-100.00,NE,50,0.0,1.0,66,0.00,,,0.00,,2013-03-22 02:42:00,
2013-03-21 21:52:00,8.0,0.0,-100.00,East,90,0.0,0.0,66,0.00,,,0.00,,2013-03-22 02:52:00,
2013-03-21 22:02:00,6.0,-4.0,-100.00,ENE,70,0.0,0.0,63,0.00,,,0.00,,2013-03-22 03:02:00,
2013-03-21 22:12:00,7.0,0.0,-100.00,NE,45,0.0,1.0,68,0.00,,,0.00,,2013-03-22 03:12:00,
2013-03-21 22:22:00,6.0,-2.0,-100.00,NNE,30,0.0,1.0,68,0.00,,,0.00,,2013-03-22 03:22:00,
2013-03-21 22:33:00,6.0,-2.0,-100.00,NE,40,1.0,1.0,68,0.00,,,0.00,,2013-03-22 03:33:00,
2013-03-21 22:42:00,5.0,-2.0,-100.00,NE,35,1.0,1.0,68,0.00,,,0.00,,2013-03-22 03:42:00,
2013-03-21 22:52:00,7.0,0.0,-100.00,NNE,20,2.0,3.0,69,0.00,,,0.00,,2013-03-22 03:52:00,
2013-03-21 23:03:00,7.0,0.0,-100.00,NNE,30,2.0,2.0,70,0.00,,,0.00,,2013-03-22 04:03:00,
2013-03-21 23:12:00,7.0,0.0,-100.00,NNE,20,2.0,2.0,71,0.00,,,0.00,,2013-03-22 04:12:00,
2013-03-21 23:23:00,2.0,-6.0,-100.00,NNE,15,0.0,1.0,69,0.00,,,0.00,,2013-03-22 04:23:00,
2013-03-21 23:32:00,1.0,-6.0,-100.00,NNE,15,0.0,0.0,71,0.00,,,0.00,,2013-03-22 04:32:00,
2013-03-21 23:42:00,3.0,-4.0,-100.00,NNE,30,1.0,1.0,71,0.00,,,0.00,,2013-03-22 04:42:00,
2013-03-21 23:52:00,0.0,-8.0,-100.00,NNE,25,1.0,2.0,69,0.00,,,0.00,,2013-03-22 04:52:00,